Regional Weather Roundup
Issued by NWS

Home | Current Version | Previous Version | Graphics & Text | Print | Product List | Glossary On
Versions: 1 2 3 4 5 6 7 8 9 10 11 12 13 14 15 16 17 18 19 20 21 22 23 24 25 26 27 28
000
ASUS45 KSLC 272310
RWRUT

UTAH REGIONAL WEATHER ROUNDUP
NATIONAL WEATHER SERVICE SALT LAKE CITY UT
400 PM MST MON FEB 27 2017

UTZ001>011-023>025-280000-

NORTHERN UTAH

CITY           SKY/WX    TMP DP  RH WIND       PRES   REMARKS
BRIGHAM CITY     N/A     34  22  63 NW9       29.75R WCI  26
DUGWAY         PTSUNNY   32  26  79 S6        29.75R WCI  26
HILL AFB       CLOUDY    32  17  52 W14       29.73R WCI  22
LOGAN          CLOUDY    32  21  64 N9        29.73R WCI  24
OGDEN          CLOUDY    33  17  51 W10       29.73R WCI  25
SALT LAKE CITY LGT SNOW  31  27  85 NW17      29.77R VSB 1   WCI  19
TOOELE VALLEY  CLOUDY    34  27  75 SE5       29.76R WCI  30
WENDOVER       MOSUNNY   37   7  28 NW22      29.75R WCI  27
HEBER CITY     LGT SNOW  28  25  86 E5        29.69R WCI  23
WEST JORDAN    CLOUDY    34  31  87 SW5       29.75R WCI  30

$$

UTZ011>015-024>027-280000-

CENTRAL/NORTHEAST UTAH

CITY           SKY/WX    TMP DP  RH WIND       PRES   REMARKS
PROVO AIRPORT  LGT SNOW  30  28  93 CALM      29.77R VSB 1
MOAB/CANYONLAN CLOUDY    51  18  27 SW28G39   29.61F
DELTA          CLOUDY    30  28  93 N13G18    29.76R VSB 1   WCI  20
PRICE          CLOUDY    36  24  62 NW12G22   29.63R WCI  28
ROOSEVELT      CLOUDY    36  27  69 W14       29.65R WCI  27
VERNAL         LGT SNOW  31  28  89 E8        29.62F FOG     WCI  23

$$

UTZ013>016-019>022-027-280000-

SOUTHERN UTAH

CITY           SKY/WX    TMP DP  RH WIND       PRES   REMARKS
BRYCE CANYON   MIX PCPN  31  20  63 SW33G43   29.72F WCI  15
CEDAR CITY     CLOUDY    40  26  57 SW18G32   29.72R WCI  31
MILFORD        CLOUDY    43  24  47 SW25      29.71R
ST GEORGE      CLOUDY    52  36  54 S18       29.76S
HANKSVILLE     PTSUNNY   50  21  32 SW20G32   29.66S
BLANDING       CLOUDY    44  22  41 SW18G24   29.81F

$$

REGIONAL REPORTS     COLORADO/ARIZONA

CITY           SKY/WX    TMP DP  RH WIND       PRES   REMARKS
CRAIG, CO      HVY SNOW  24  21  88 VRB6      29.64R VSB 1/4 WCI  17
GRAND JUNCTION CLOUDY    49  20  31 SW14      29.64F
RIFLE, CO      CLOUDY    45  23  42 SW20G31   29.64S
MONTROSE, CO   CLOUDY    45  20  36 SW29G39   29.73R
CORTEZ, CO     CLOUDY    46  23  40 SW21G31   29.80S
COLORADO CITY  LGT RAIN  41  36  81 SW14G23   29.82S
PAGE, AZ       CLOUDY    52  25  35 VRB5G16   29.74R
GRAND CANYON   MIX PCPN  34  34 100 SW18      29.83S FOG     WCI  23
KINGMAN, AZ    LGT RAIN  47  43  86 SW14      29.82F FOG
FLAGSTAFF, AZ  HVY SNOW  31  31 100 SW17G25   29.84F VSB 1/4 WCI  19

$$

REGIONAL REPORTS    NEVADA/IDAHO/WYOMING

CITY           SKY/WX    TMP DP  RH WIND       PRES   REMARKS
LAS VEGAS, NV  CLOUDY    56  33  42 SW15G23   29.73F
ELY, NY        CLOUDY    29  19  66 NE7       29.74S WCI  22
ELKO, NV       MOSUNNY   34  10  37 W18       29.75R WCI  23
POCATELLO, ID  MOSUNNY   27  19  72 W24       29.72R WCI  12
BURLEY, ID     LGT RAIN  34  19  54 W17G29    29.72R WCI  23
FORT BRIDGER,  LGT SNOW  22  22  96 W18       29.66R WCI   8
EVANSTON, WY   SNOW      20  16  84 SW18      29.64R VSB 1/2 WCI   5
ROCK SPRINGS,  LGT SNOW  23  19  85 SW12      29.61R FOG     WCI  12

$$




USA.gov is the U.S. government's official web portal to all federal, state and local government web resources and services.